Location: Schommer Observatory
(40.5200°N, 74.4500°W)
Time: 16:56:29
(UTC-05:00)

N. Korean satellite - Pass Details

Date: 12 November 2017
Orbit: 460 x 514 km, 97.2° (Epoch: 22 November)

Event Time Altitude Azimuth Distance (km) Brightness Sun altitude
Rises 17:59:01 0° 168° (SSE) 2,471 10.2 -14.7°
Reaches altitude 10° 18:01:02 10° 169° (SSE) 1,603 9.2 -15.1°
Maximum altitude 18:04:28 86° 257° (WSW) 471 6.4 -15.7°
Drops below altitude 10° 18:07:58 10° 347° (NNW) 1,632 9.3 -16.4°
Sets 18:10:03 0° 348° (NNW) 2,521 10.2 -16.8°
